Time,TemperatureF,DewpointF,PressureIn,WindDirection,WindDirectionDegrees,WindSpeedMPH,WindSpeedGustMPH,Humidity,HourlyPrecipIn,Conditions,Clouds,dailyrainin,SoftwareType,DateUTC
2013-03-16 00:00:00,23.8,18.2,29.60,WNW,290,0.0,25.0,79,0.00,,,0.00,Wunderground v.1.15,2013-03-16 04:00:00,
2013-03-16 00:05:00,23.6,18.3,29.60,WNW,290,0.0,25.0,80,0.00,,,0.00,Wunderground v.1.15,2013-03-16 04:05:00,
2013-03-16 00:10:00,23.4,18.1,29.60,WNW,290,0.0,25.0,80,0.00,,,0.00,Wunderground v.1.15,2013-03-16 04:10:00,
2013-03-16 00:20:00,23.3,18.9,29.60,WNW,290,0.0,25.0,83,0.00,,,0.00,Wunderground v.1.15,2013-03-16 04:20:00,
2013-03-16 00:30:00,23.2,18.8,29.60,WNW,290,0.0,25.0,83,0.00,,,0.00,Wunderground v.1.15,2013-03-16 04:30:00,
2013-03-16 00:40:00,23.1,18.4,29.60,WNW,290,0.0,25.0,82,0.00,,,0.00,Wunderground v.1.15,2013-03-16 04:40:00,
2013-03-16 00:50:00,22.8,18.1,29.60,WNW,290,0.0,25.0,82,0.00,,,0.00,Wunderground v.1.15,2013-03-16 04:50:00,
2013-03-16 00:55:00,22.8,18.7,29.60,WNW,291,0.0,25.0,84,0.00,,,0.00,Wunderground v.1.15,2013-03-16 04:55:00,
2013-03-16 01:01:00,22.9,18.8,29.60,WNW,290,0.0,0.0,84,0.00,,,0.00,Wunderground v.1.15,2013-03-16 05:01:00,
2013-03-16 01:10:00,23.5,19.1,29.61,WNW,290,0.0,0.0,83,0.00,,,0.00,Wunderground v.1.15,2013-03-16 05:10:00,
2013-03-16 01:15:00,23.9,18.9,29.61,WNW,291,1.0,2.0,81,0.00,,,0.00,Wunderground v.1.15,2013-03-16 05:15:00,
2013-03-16 01:25:00,24.4,19.1,29.60,West,279,2.0,2.0,80,0.00,,,0.00,Wunderground v.1.15,2013-03-16 05:25:00,
2013-03-16 01:35:00,25.8,19.9,29.60,West,281,1.0,2.0,78,0.00,,,0.00,Wunderground v.1.15,2013-03-16 05:35:00,
2013-03-16 01:40:00,25.9,20.0,29.61,WNW,291,1.0,2.0,78,0.00,,,0.00,Wunderground v.1.15,2013-03-16 05:40:00,
2013-03-16 01:50:00,25.9,19.7,29.61,WNW,299,1.0,1.0,77,0.00,,,0.00,Wunderground v.1.15,2013-03-16 05:50:00,
2013-03-16 02:00:00,25.8,19.3,29.61,WSW,258,0.0,1.0,76,0.00,,,0.00,Wunderground v.1.15,2013-03-16 06:00:00,
2013-03-16 02:05:00,25.8,19.0,29.61,WSW,257,1.0,1.0,75,0.00,,,0.00,Wunderground v.1.15,2013-03-16 06:05:00,
2013-03-16 02:10:00,25.8,19.0,29.61,West,272,1.0,1.0,75,0.00,,,0.00,Wunderground v.1.15,2013-03-16 06:10:00,
2013-03-16 02:20:00,25.5,18.7,29.61,West,264,1.0,3.0,75,0.00,,,0.00,Wunderground v.1.15,2013-03-16 06:20:00,
2013-03-16 02:30:00,25.1,18.9,29.61,West,271,2.0,2.0,77,0.00,,,0.00,Wunderground v.1.15,2013-03-16 06:30:00,
2013-03-16 02:40:00,25.6,18.8,29.62,West,273,2.0,4.0,75,0.00,,,0.00,Wunderground v.1.15,2013-03-16 06:40:00,
2013-03-16 02:45:00,25.9,18.4,29.62,West,273,3.0,5.0,73,0.00,,,0.00,Wunderground v.1.15,2013-03-16 06:45:00,
2013-03-16 02:55:00,25.9,18.7,29.62,West,261,4.0,4.0,74,0.00,,,0.00,Wunderground v.1.15,2013-03-16 06:55:00,
2013-03-16 03:00:00,26.0,18.8,29.62,WSW,254,3.0,3.0,74,0.00,,,0.00,Wunderground v.1.15,2013-03-16 07:00:00,
2013-03-16 03:05:00,25.9,18.7,29.62,WNW,294,3.0,4.0,74,0.00,,,0.00,Wunderground v.1.15,2013-03-16 07:05:00,
2013-03-16 03:15:00,25.6,19.1,29.63,WNW,291,2.0,4.0,76,0.00,,,0.00,Wunderground v.1.15,2013-03-16 07:15:00,
2013-03-16 03:25:00,25.3,19.7,29.64,NW,310,3.0,4.0,79,0.00,,,0.00,Wunderground v.1.15,2013-03-16 07:25:00,
2013-03-16 03:35:00,25.4,19.8,29.65,WNW,288,5.0,7.0,79,0.00,,,0.00,Wunderground v.1.15,2013-03-16 07:35:00,
2013-03-16 03:40:00,25.4,20.4,29.64,WNW,294,6.0,6.0,81,0.00,,,0.00,Wunderground v.1.15,2013-03-16 07:40:00,
2013-03-16 03:45:00,25.6,21.7,29.65,WNW,288,8.0,11.0,85,0.00,,,0.00,Wunderground v.1.15,2013-03-16 07:45:00,
2013-03-16 03:50:00,25.7,22.1,29.65,WNW,286,9.0,9.0,86,0.00,,,0.00,Wunderground v.1.15,2013-03-16 07:50:00,
2013-03-16 04:00:00,26.0,22.7,29.66,NW,304,9.0,9.0,87,0.00,,,0.00,Wunderground v.1.15,2013-03-16 08:00:00,
2013-03-16 04:10:00,26.1,22.8,29.66,WNW,300,7.0,7.0,87,0.00,,,0.00,Wunderground v.1.15,2013-03-16 08:10:00,
2013-03-16 04:20:00,26.2,22.6,29.67,NW,307,8.0,8.0,86,0.00,,,0.00,Wunderground v.1.15,2013-03-16 08:20:00,
2013-03-16 04:30:00,26.2,22.6,29.68,NW,305,7.0,7.0,86,0.00,,,0.00,Wunderground v.1.15,2013-03-16 08:30:00,
2013-03-16 04:40:00,26.1,22.2,29.68,WNW,293,7.0,7.0,85,0.00,,,0.00,Wunderground v.1.15,2013-03-16 08:40:00,
2013-03-16 04:45:00,26.0,21.8,29.68,NW,317,6.0,7.0,84,0.00,,,0.00,Wunderground v.1.15,2013-03-16 08:45:00,
2013-03-16 04:55:00,25.9,21.7,29.69,NW,309,6.0,7.0,84,0.00,,,0.00,Wunderground v.1.15,2013-03-16 08:55:00,
2013-03-16 05:05:00,25.8,21.3,29.70,WNW,299,7.0,12.0,83,0.00,,,0.00,Wunderground v.1.15,2013-03-16 09:05:00,
2013-03-16 05:15:00,25.6,21.2,29.70,West,276,7.0,9.0,83,0.00,,,0.00,Wunderground v.1.15,2013-03-16 09:15:00,
2013-03-16 05:25:00,25.5,20.8,29.71,WNW,284,7.0,8.0,82,0.00,,,0.00,Wunderground v.1.15,2013-03-16 09:25:00,
2013-03-16 05:35:00,25.2,20.8,29.71,NW,325,5.0,7.0,83,0.00,,,0.00,Wunderground v.1.15,2013-03-16 09:35:00,
2013-03-16 05:45:00,25.0,20.8,29.71,WNW,294,3.0,4.0,84,0.00,,,0.00,Wunderground v.1.15,2013-03-16 09:45:00,
2013-03-16 05:50:00,24.8,20.7,29.72,WNW,298,3.0,4.0,84,0.00,,,0.00,Wunderground v.1.15,2013-03-16 09:50:00,
2013-03-16 06:00:00,24.4,20.0,29.72,WNW,294,4.0,4.0,83,0.00,,,0.00,Wunderground v.1.15,2013-03-16 10:00:00,
2013-03-16 06:05:00,24.3,19.9,29.73,West,279,4.0,5.0,83,0.00,,,0.00,Wunderground v.1.15,2013-03-16 10:05:00,
2013-03-16 06:10:00,24.3,19.9,29.73,WNW,284,4.0,5.0,83,0.00,,,0.00,Wunderground v.1.15,2013-03-16 10:10:00,
2013-03-16 06:20:00,24.2,19.8,29.74,WNW,294,6.0,6.0,83,0.00,,,0.00,Wunderground v.1.15,2013-03-16 10:20:00,
2013-03-16 06:30:00,23.9,19.8,29.74,NW,307,6.0,11.0,84,0.00,,,0.00,Wunderground v.1.15,2013-03-16 10:30:00,
2013-03-16 06:40:00,23.9,19.8,29.75,WNW,290,6.0,6.0,84,0.00,,,0.00,Wunderground v.1.15,2013-03-16 10:40:00,
2013-03-16 15:00:00,34.1,11.1,29.74,SW,223,8.0,8.0,38,0.00,,,0.00,Wunderground v.1.15,2013-03-16 19:00:00,
2013-03-16 15:10:00,35.0,12.5,29.74,SE,140,8.0,8.0,39,0.00,,,0.00,Wunderground v.1.15,2013-03-16 19:10:00,
2013-03-16 15:15:00,35.2,12.1,29.74,WNW,294,6.0,8.0,38,0.00,,,0.00,Wunderground v.1.15,2013-03-16 19:15:00,
2013-03-16 15:25:00,34.7,9.1,29.74,WNW,286,11.0,11.0,34,0.00,,,0.00,Wunderground v.1.15,2013-03-16 19:25:00,
2013-03-16 15:35:00,34.6,10.3,29.74,West,267,8.0,11.0,36,0.00,,,0.00,Wunderground v.1.15,2013-03-16 19:35:00,
2013-03-16 15:45:00,33.9,10.3,29.74,SSW,210,9.0,12.0,37,0.00,,,0.00,Wunderground v.1.15,2013-03-16 19:45:00,
2013-03-16 15:55:00,34.5,11.5,29.74,NW,317,8.0,9.0,38,0.00,,,0.00,Wunderground v.1.15,2013-03-16 19:55:00,
2013-03-16 16:05:00,35.2,12.7,29.74,WSW,258,5.0,7.0,39,0.00,,,0.00,Wunderground v.1.15,2013-03-16 20:05:00,
2013-03-16 16:10:00,35.4,11.1,29.74,West,276,5.0,13.0,36,0.00,,,0.00,Wunderground v.1.15,2013-03-16 20:10:00,
2013-03-16 16:20:00,34.7,9.8,29.74,West,279,13.0,13.0,35,0.00,,,0.00,Wunderground v.1.15,2013-03-16 20:20:00,
2013-03-16 16:30:00,34.7,10.4,29.75,West,275,10.0,11.0,36,0.00,,,0.00,Wunderground v.1.15,2013-03-16 20:30:00,
2013-03-16 16:40:00,35.2,10.2,29.75,West,267,7.0,7.0,35,0.00,,,0.00,Wunderground v.1.15,2013-03-16 20:40:00,
2013-03-16 16:50:00,34.5,9.6,29.75,West,277,9.0,15.0,35,0.00,,,0.00,Wunderground v.1.15,2013-03-16 20:50:00,
2013-03-16 16:55:00,34.2,9.4,29.75,WSW,248,10.0,15.0,35,0.00,,,0.00,Wunderground v.1.15,2013-03-16 20:55:00,
2013-03-16 17:05:00,34.2,10.0,29.75,West,267,7.0,10.0,36,0.00,,,0.00,Wunderground v.1.15,2013-03-16 21:05:00,
2013-03-16 17:15:00,34.1,9.9,29.75,West,271,7.0,9.0,36,0.00,,,0.00,Wunderground v.1.15,2013-03-16 21:15:00,
2013-03-16 17:25:00,34.3,10.1,29.75,WNW,294,5.0,6.0,36,0.00,,,0.00,Wunderground v.1.15,2013-03-16 21:25:00,
2013-03-16 17:35:00,34.4,10.8,29.75,WNW,294,6.0,6.0,37,0.00,,,0.00,Wunderground v.1.15,2013-03-16 21:35:00,
2013-03-16 17:45:00,34.4,10.2,29.75,West,273,6.0,11.0,36,0.00,,,0.00,Wunderground v.1.15,2013-03-16 21:45:00,
2013-03-16 17:55:00,34.4,10.8,29.74,West,273,5.0,7.0,37,0.00,,,0.00,Wunderground v.1.15,2013-03-16 21:55:00,
2013-03-16 18:00:00,34.1,10.5,29.74,WNW,290,6.0,11.0,37,0.00,,,0.00,Wunderground v.1.15,2013-03-16 22:00:00,
2013-03-16 18:10:00,33.7,10.1,29.74,WNW,291,6.0,6.0,37,0.00,,,0.00,Wunderground v.1.15,2013-03-16 22:10:00,
2013-03-16 18:15:00,33.4,10.5,29.74,WNW,291,5.0,7.0,38,0.00,,,0.00,Wunderground v.1.15,2013-03-16 22:15:00,
2013-03-16 18:25:00,33.1,10.2,29.75,WNW,288,6.0,6.0,38,0.00,,,0.00,Wunderground v.1.15,2013-03-16 22:25:00,
2013-03-16 18:35:00,32.5,10.3,29.75,NW,317,5.0,6.0,39,0.00,,,0.00,Wunderground v.1.15,2013-03-16 22:35:00,
2013-03-16 18:40:00,32.4,10.2,29.75,WNW,299,6.0,6.0,39,0.00,,,0.00,Wunderground v.1.15,2013-03-16 22:40:00,
2013-03-16 18:50:00,32.0,10.4,29.76,WNW,298,5.0,5.0,40,0.00,,,0.00,Wunderground v.1.15,2013-03-16 22:50:00,
2013-03-16 19:00:00,31.5,10.5,29.76,WNW,286,4.0,4.0,41,0.00,,,0.00,Wunderground v.1.15,2013-03-16 23:00:00,
2013-03-16 19:10:00,31.1,10.6,29.77,WNW,288,3.0,4.0,42,0.00,,,0.00,Wunderground v.1.15,2013-03-16 23:10:00,
2013-03-16 19:20:00,30.8,10.4,29.77,West,281,2.0,2.0,42,0.00,,,0.00,Wunderground v.1.15,2013-03-16 23:20:00,
2013-03-16 19:30:00,30.6,10.7,29.77,West,276,2.0,2.0,43,0.00,,,0.00,Wunderground v.1.15,2013-03-16 23:30:00,
2013-03-16 19:40:00,30.3,11.0,29.78,West,275,2.0,2.0,44,0.00,,,0.00,Wunderground v.1.15,2013-03-16 23:40:00,
2013-03-16 19:45:00,30.2,10.9,29.78,West,277,2.0,2.0,44,0.00,,,0.00,Wunderground v.1.15,2013-03-16 23:45:00,
2013-03-16 19:55:00,29.9,11.1,29.79,West,271,2.0,2.0,45,0.00,,,0.00,Wunderground v.1.15,2013-03-16 23:55:00,
2013-03-16 20:00:00,30.0,10.7,29.80,West,277,2.0,4.0,44,0.00,,,0.00,Wunderground v.1.15,2013-03-17 00:00:00,
2013-03-16 20:10:00,30.0,10.7,29.80,WNW,302,3.0,5.0,44,0.00,,,0.00,Wunderground v.1.15,2013-03-17 00:10:00,
2013-03-16 20:20:00,29.9,11.6,29.80,WNW,288,4.0,6.0,46,0.00,,,0.00,Wunderground v.1.15,2013-03-17 00:20:00,
2013-03-16 20:25:00,30.1,11.8,29.80,WNW,291,5.0,6.0,46,0.00,,,0.00,Wunderground v.1.15,2013-03-17 00:25:00,
2013-03-16 20:35:00,30.2,10.9,29.81,NW,321,8.0,11.0,44,0.00,,,0.00,Wunderground v.1.15,2013-03-17 00:35:00,
2013-03-16 20:45:00,30.1,11.3,29.81,WNW,291,8.0,9.0,45,0.00,,,0.00,Wunderground v.1.15,2013-03-17 00:45:00,
2013-03-16 20:50:00,30.0,11.2,29.81,WNW,291,9.0,9.0,45,0.00,,,0.00,Wunderground v.1.15,2013-03-17 00:50:00,
2013-03-16 20:55:00,30.0,11.7,29.82,WNW,298,8.0,9.0,46,0.00,,,0.00,Wunderground v.1.15,2013-03-17 00:55:00,
2013-03-16 21:00:00,29.9,11.6,29.82,West,275,8.0,8.0,46,0.00,,,0.00,Wunderground v.1.15,2013-03-17 01:00:00,
2013-03-16 21:10:00,29.7,11.4,29.82,WNW,300,8.0,11.0,46,0.00,,,0.00,Wunderground v.1.15,2013-03-17 01:10:00,
2013-03-16 21:20:00,29.6,11.3,29.82,NW,304,11.0,11.0,46,0.00,,,0.00,Wunderground v.1.15,2013-03-17 01:20:00,
2013-03-16 21:25:00,29.5,11.2,29.83,WNW,288,9.0,11.0,46,0.00,,,0.00,Wunderground v.1.15,2013-03-17 01:25:00,
2013-03-16 21:35:00,29.3,10.6,29.83,WNW,290,11.0,11.0,45,0.00,,,0.00,Wunderground v.1.15,2013-03-17 01:35:00,
2013-03-16 21:45:00,29.1,10.4,29.83,WNW,288,8.0,15.0,45,0.00,,,0.00,Wunderground v.1.15,2013-03-17 01:45:00,
2013-03-16 21:55:00,29.0,10.3,29.84,WNW,299,7.0,8.0,45,0.00,,,0.00,Wunderground v.1.15,2013-03-17 01:55:00,
2013-03-16 22:00:00,29.0,10.8,29.84,NW,317,7.0,7.0,46,0.00,,,0.00,Wunderground v.1.15,2013-03-17 02:00:00,
2013-03-16 22:10:00,28.9,10.7,29.84,WNW,303,6.0,6.0,46,0.00,,,0.00,Wunderground v.1.15,2013-03-17 02:10:00,
2013-03-16 22:20:00,28.8,11.1,29.84,NW,309,8.0,9.0,47,0.00,,,0.00,Wunderground v.1.15,2013-03-17 02:20:00,
2013-03-16 22:30:00,28.6,11.4,29.84,WNW,294,8.0,9.0,48,0.00,,,0.00,Wunderground v.1.15,2013-03-17 02:30:00,
2013-03-16 22:40:00,28.5,11.3,29.85,West,279,9.0,9.0,48,0.00,,,0.00,Wunderground v.1.15,2013-03-17 02:40:00,
2013-03-16 22:50:00,28.4,11.2,29.86,WNW,288,9.0,11.0,48,0.00,,,0.00,Wunderground v.1.15,2013-03-17 02:50:00,
2013-03-16 22:55:00,28.3,11.6,29.86,WNW,290,10.0,11.0,49,0.00,,,0.00,Wunderground v.1.15,2013-03-17 02:55:00,
2013-03-16 23:05:00,28.2,11.9,29.86,NW,304,6.0,8.0,50,0.00,,,0.00,Wunderground v.1.15,2013-03-17 03:05:00,
2013-03-16 23:15:00,28.1,11.8,29.86,West,279,6.0,8.0,50,0.00,,,0.00,Wunderground v.1.15,2013-03-17 03:15:00,
2013-03-16 23:20:00,28.1,11.8,29.86,WNW,291,6.0,6.0,50,0.00,,,0.00,Wunderground v.1.15,2013-03-17 03:20:00,
2013-03-16 23:30:00,28.0,12.2,29.86,NW,304,5.0,5.0,51,0.00,,,0.00,Wunderground v.1.15,2013-03-17 03:30:00,
2013-03-16 23:40:00,27.9,12.5,29.86,WNW,286,3.0,5.0,52,0.00,,,0.00,Wunderground v.1.15,2013-03-17 03:40:00,
2013-03-16 23:45:00,27.8,12.4,29.87,WNW,290,3.0,5.0,52,0.00,,,0.00,Wunderground v.1.15,2013-03-17 03:45:00,
2013-03-16 23:55:00,27.6,12.2,29.87,WNW,291,3.0,3.0,52,0.00,,,0.00,Wunderground v.1.15,2013-03-17 03:55:00,